Weather History for Lakehurst NAS, NJ

Change the Weather History Date:

Sunday, November 4, 2012

  Actual Average Record
Temperature  
Mean Temperature 39 °F -  
Max Temperature 48 °F 57 °F 64 °F (1997)
Min Temperature 30 °F 40 °F 30 °F (2012)
Degree Days  
Heating Degree Days 26    
Moisture  
Dew Point 29 °F    
Average Humidity 63    
Maximum Humidity 85    
Minimum Humidity 48    
Precipitation  
Precipitation 0.00 in - - ()
Sea Level Pressure  
Sea Level Pressure 29.98 in    
Wind  
Wind Speed 7 mph (WNW)    
Max Wind Speed 13 mph    
Max Gust Speed 16 mph    
Visibility 10 miles    
Events      
Averages and records for this station are not official NWS values.
T = Trace of Precipitation, MM = Missing Value Source: NWS Daily Summary

Daily Weather History Graph

Daily Weather History Graph

Search for Another Location

Airport:

Trip Planner

Search our weather history database for the weather conditions in past years. The results will help you decide how hot, cold, wet, or windy it might be!

Date:

Astronomy

Nov. 04, 2012 Rise Set
Actual Time 6:30 AM EST 4:50 PM EST
Civil Twilight 6:02 AM EST 5:19 PM EST
Nautical Twilight 5:29 AM EST 5:51 PM EST
Astronomical Twilight 4:58 AM EST 6:23 PM EST
Moon 9:26 PM EST (11/4) 11:12 AM EST (11/4)
Length of Visible Light 11h 17m
Length of Day
10h 20m
Waning Gibbous, 72% of the Moon is Illuminated
Nov 4
Waning Gibbous
Nov 6
Last Quarter
Nov 13
New
Nov 20
First Quarter
Nov 28
Full

Hourly Weather History & Observations

Time (EST) Temp. Windchill Dew Point Humidity Pressure Visibility Wind Dir Wind Speed Gust Speed Precip Events Conditions
12:00 AM 39.9 °F 34.5 °F 27.0 °F 60% 29.98 in 10.0 mi WNW 8.1 mph - N/A   Clear
1:00 AM 39.9 °F 35.8 °F 27.0 °F 60% 29.99 in 10.0 mi WNW 5.8 mph - N/A   Clear
1:00 AM 37.0 °F - 28.0 °F 70% 29.98 in 10.0 mi Calm Calm - N/A   Clear
2:00 AM 35.1 °F 31.0 °F 28.0 °F 76% 29.98 in 10.0 mi WNW 4.6 mph - N/A   Clear
3:00 AM 34.0 °F 28.0 °F 28.0 °F 79% 29.97 in 10.0 mi WNW 6.9 mph - N/A   Clear
4:00 AM 32.0 °F 28.7 °F 27.0 °F 82% 29.98 in 10.0 mi WNW 3.5 mph - N/A   Clear
5:00 AM 30.9 °F 26.2 °F 27.0 °F 85% 29.99 in 10.0 mi West 4.6 mph - N/A   Clear
6:00 AM 32.0 °F 26.4 °F 27.0 °F 82% 29.99 in 10.0 mi WNW 5.8 mph - N/A   Clear
7:00 AM 33.1 °F 30.0 °F 28.0 °F 82% 29.99 in 10.0 mi WNW 3.5 mph - N/A   Clear
8:00 AM 39.9 °F 35.1 °F 28.9 °F 65% 30.01 in 10.0 mi WNW 6.9 mph - N/A   Clear
9:00 AM 44.1 °F 38.1 °F 30.0 °F 58% 30.01 in 10.0 mi WNW 11.5 mph - N/A   Clear
10:00 AM 46.0 °F 41.9 °F 30.0 °F 54% 29.99 in 10.0 mi NW 8.1 mph - N/A   Clear
10:08 AM - - - N/A% - - North - - N/A   Unknown
11:00 AM 46.9 °F - 30.0 °F 52% 29.99 in 10.0 mi WNW 10.4 mph - N/A   Clear
12:00 PM 48.9 °F - 30.0 °F 48% 29.96 in 10.0 mi WNW 10.4 mph 16.1 mph N/A   Partly Cloudy
1:00 PM 48.9 °F - 30.9 °F 50% 29.95 in 10.0 mi WNW 12.7 mph - N/A   Overcast
2:00 PM 48.0 °F - 30.0 °F 50% 29.96 in 10.0 mi West 11.5 mph - N/A   Overcast
3:00 PM 46.9 °F - 30.9 °F 54% 29.96 in 10.0 mi WNW 11.5 mph - N/A   Overcast
4:00 PM 46.0 °F 41.4 °F 30.9 °F 56% 29.96 in 10.0 mi WNW 9.2 mph - N/A   Overcast
5:00 PM 45.0 °F 39.7 °F 30.0 °F 56% 29.96 in 10.0 mi WNW 10.4 mph - N/A   Overcast
6:00 PM 44.1 °F 39.0 °F 30.0 °F 58% 29.98 in 10.0 mi WNW 9.2 mph - N/A   Overcast
7:00 PM 43.0 °F 38.8 °F 28.9 °F 58% 29.98 in 10.0 mi WNW 6.9 mph - N/A   Overcast
8:00 PM 43.0 °F 38.8 °F 28.9 °F 58% 29.99 in 10.0 mi WNW 6.9 mph - N/A   Overcast
9:00 PM 42.1 °F 38.4 °F 28.9 °F 60% 29.99 in 10.0 mi WNW 5.8 mph - N/A   Overcast
10:00 PM 42.1 °F 38.4 °F 30.0 °F 62% 29.99 in 10.0 mi WNW 5.8 mph - N/A   Overcast